www.pogodaiklimat.ru

ПОГОДА в Чуджиаке, AK

  • Прогноз погоды в Чуджиаке
  • Монитор погоды в Чуджиаке
  • Климат в Чуджиаке

АРХИВ ПОГОДЫ в Чуджиаке

Время (UTC), дата Ветер
(напр.,м/с)
 
Видим.   Явления Облачность Т
(С)
Тd
(С)
f
(%)
Тe
(С)
Тes
(С)
Комфортность

P
(гПа)

Po
(гПа)
Тmin
(С)
Tmax
(С)
R
(мм)
SD
(см)
04:56 18.06   16 км    5/5 1500 м  +18.3  +9.4  56  +19  +19    1006.2  1002.2  +16.1  +20.6     
05:56 18.06   16 км  слабый дождь  10/10 1470 м  +16.7  +10.0  65  +17  +17    1006.8  1002.9         
06:56 18.06 Ю  16 км    10/0 2850 м
[средняя] 
+15.6  +9.4  67  +15  +15    1007.4  1003.5         
07:56 18.06 СВ  16 км    10/0 2700 м
[средняя] 
+13.9  +9.4  74  +13  +13    1008.2  1004.2         
08:56 18.06   16 км    10/0 3000 м
[средняя] 
+13.3  +8.9  75  +13  +13    1008.8  1004.5         
09:56 18.06   16 км    10/0 2700 м
[средняя] 
+12.8  +10.0  83  +12  +12    1009.3  1005.2         
10:56 18.06   16 км  слабый дождь  10/5 1440 м
[средняя] 
+12.8  +10.0  83  +12  +12    1010.5  1006.6  +12.2  +18.3  0.3   
11:56 18.06   16 км  слабый дождь  10/8 1230 м
[средняя] 
+11.7  +10.0  89  +11  +11    1011.4  1007.2         
12:41 18.06 ЮЗ  16 км    10/8 780 м
[средняя] 
+12.0  +9.0  82  +11  +11      1007.6         
12:56 18.06   16 км    10/10 720 м  +12.2  +10.0  86  +12  +12    1011.8  1007.9         
13:30 18.06   16 км    10/10 720 м  +12.0  +10.0  88  +11  +11      1008.3         
13:56 18.06 Ю  16 км    10/10 1200 м  +12.2  +10.0  86  +12  +12    1012.4  1008.3         
14:56 18.06 З  16 км  слабый дождь  10/10 1200 м  +12.2  +10.0  86  +12  +12    1012.9  1008.9         
15:11 18.06   16 км  слабый дождь  10/10 570 м  +12.0  +11.0  94  +11  +11      1008.9         
15:33 18.06 З  14 км  дождь  10/10 300 м  +12.0  +10.0  88  +11  +11      1009.3         
15:56 18.06 ЮЗ  13 км  слабый дождь  10/10 300 м  +11.7  +10.0  89  +10  +10    1013.6  1009.6         
16:38 18.06 ЮЗ  16 км  слабый дождь  10/10 450 м  +12.0  +10.0  88  +11  +11      1009.9         
16:56 18.06 нст  16 км  слабый дождь  10/10 330 м  +11.7  +10.0  89  +11  +11    1014.1  1009.9  +11.1  +12.8  1.5   
17:10 18.06 ЮЗ  16 км  слабый дождь  8/8 660 м  +12.0  +10.0  88  +11  +12      1010.3         
17:56 18.06 Ю  16 км  слабый дождь  10/10 720 м  +11.7  +9.4  86  +10  +10    1014.6  1010.6         
18:26 18.06 Ю  16 км  слабый дождь  10/10 780 м  +12.0  +9.0  82  +10  +10      1010.6         
18:56 18.06 ЮЗ  16 км    10/10 990 м  +12.2  +9.4  83  +10  +10    1015.0  1011.0         
19:56 18.06 Ю  16 км  слабый дождь  10/10 570 м  +13.3  +9.4  77  +12  +12    1015.6  1011.6      0.3   
20:56 18.06 ЮЗ  16 км  слабый дождь  10/10 720 м  +14.4  +8.9  70  +14  +14    1015.9  1012.0         
21:56 18.06 нст  16 км    10/10 810 м  +15.0  +8.3  64  +15  +15    1016.3  1012.3         
22:56 18.06 ЮЗ  16 км  слабый дождь  10/10 900 м  +15.0  +7.8  62  +15  +15    1016.9  1012.6  +11.7  +15.0  0.3   
23:56 18.06 СЗ  16 км    10/5 990 м
[средняя] 
+15.6  +7.8  60  +15  +17    1017.0  1013.0         
00:56 19.06 нст  16 км    10/8 900 м
[средняя] 
+16.1  +8.3  60  +16  +17    1017.2  1013.3         
01:56 19.06 З  16 км    10/10 1050 м  +15.0  +8.3  64  +14  +14    1017.6  1013.7         
02:56 19.06 З  16 км    10/10 1320 м  +15.0  +8.3  64  +14  +14    1017.9  1014.0         
03:56 19.06 ЮЗ  16 км    10/10 1650 м  +14.4  +8.3  67  +14  +14    1018.7  1014.7         
04:56 19.06 ЮЗ  16 км    10/10 1320 м  +14.4  +7.2  62  +14  +14    1019.2  1015.0  +13.9  +16.1     
05:56 19.06 Ю  16 км    10/10 1500 м  +13.9  +7.2  64  +13  +13    1019.8  1015.7         
06:56 19.06 Ю  16 км    10/10 1290 м  +13.3  +7.2  67  +12  +12    1020.3  1016.0         
07:56 19.06 ЮЗ  16 км    10/10 1650 м  +12.8  +7.2  69  +12  +12    1020.9  1016.7         
08:56 19.06 Ю  16 км    10/10 1650 м  +12.8  +7.8  72  +12  +12    1021.3  1017.4         
09:56 19.06   16 км    10/10 1050 м  +12.2  +8.9  80  +12  +12    1021.7  1017.7         
10:56 19.06   16 км    10/10 1500 м  +12.2  +6.7  69  +12  +12    1021.9  1017.7  +12.2  +13.9     
11:56 19.06 Ю  16 км    10/10 1500 м  +12.2  +5.6  64  +11  +11    1022.0  1018.0         
12:56 19.06   16 км    10/10 1260 м  +12.2  +6.1  66  +12  +12    1022.6  1018.4         
13:56 19.06 СВ  16 км    10/10 1650 м  +11.7  +7.2  74  +11  +11    1023.1  1019.1         
14:56 19.06 ЮЗ  16 км    10/10 1260 м  +12.2  +6.1  66  +11  +11    1023.3  1019.1         
15:56 19.06 ЮЗ  16 км    10/10 1260 м  +13.3  +6.1  62  +12  +12    1023.6  1019.4         
16:56 19.06 С  16 км    10/10 1650 м  +12.8  +6.7  66  +12  +12    1023.6  1019.4  +11.7  +13.3     
17:56 19.06 С  16 км    10/10 1410 м  +12.8  +6.7  66  +12  +12    1023.6  1019.4         
18:56 19.06 нст  16 км    8/8 1350 м  +13.9  +6.7  62  +14  +16    1023.4  1019.4         
19:56 19.06 нст  16 км    ясно  +15.0  +6.1  55  +15  +25    1023.3  1019.4         
20:56 19.06 З  16 км    ясно  +16.1  +7.8  58  +16  +28  опасность
простуды 
1023.1  1019.1         

 

Местоположение метеостанции Birchwood Airport: широта 61.4167 долгота -149.5167 высота над уровнем моря 29 м.

В архиве по умолчанию представлена погода в Чуджиаке за последние 1-2 суток. Обновление информации о фактической погоде в базе происходит ежечасно! Архивные данные за месяц целиком и за предыдущие месяцы Вы можете получить, выбрав интересующий диапазон дат из раскрывающегося списка и нажав кнопку "Ввод!".

Внимание! Архив погоды МЕТАР в базе сайта хранится не более 60 дней. Нет смысла пытаться выбрать более раннюю дату.

Внимание! Время в таблицах - всемирное. Для получения местного времени необходимо прибавить поправку, которая в Чуджиаке равна -9 ч.

Ветер - указаны скорость ветра в м/с и направление, откуда дует ветер: С - северный, СВ - северо-восточный, В - восточный, ЮВ - юго-восточный, Ю - южный, ЮЗ - юго-западный, З - западный, СЗ - северо-западный.
Видимость - горизонтальная дальность видимости в метрах или километрах. При видимости от 1 до 10 км при отсутствии осадков обычно наблюдается дымка, при ухудшении видимости до 1 км и менее - туман. В сухую погоду видимость может ухудшаться дымом, пылью или мглою.
Атмосферные явления - указаны явления, наблюдавшиеся в указанный момент времени.
Облачность - указаны через наклонную черту верхняя и нижняя облачность в баллах и высота нижней границы облаков в метрах. Внимание: облачность, как и прочие метеорологические величины в США измеряются автоматическими метеостанциями. Указанные значения в баллах носят условный характер и показывают процент времени, в течение которого, в среднем, лазерный луч высотомера отражался от облаков обратно.
T - Температура воздуха - температура, измеренная на высоте 2 м над землей.
Td - Температура точки росы - температура, при понижении до которой содержащийся в воздухе водяной пар достигнет насыщения.
f - Относительная влажность воздуха - влажноcть воздуха, измеренная на высоте 2 м над землей.
Te - Эффективная температура - температура, которую ощущает одетый по сезону человек в тени. Характеристика душности погоды. При расчете учитывается влияние влажности воздуха и скорости ветра на теплоощущения человека.
Tes - Эффективная температура на солнце - температура, которую ощущает человек, с поправкой на солнечный нагрев. Характеристика знойности погоды. Зависит от высоты солнца над горизонтом, облачности и скорости ветра. Ночью, в пасмурную погоду, а также при ветре 12 м/с и более поправка равна нулю.
P - Атмосферное давление - приведенное к уровню моря атмосферное давление.
Po - Атмосферное давление - измеренное на уровне метеостанции атмосферное давление.
Tmin - Минимальная температура - минимум температуры воздуха на высоте 2 м над землей.
Tmax - Максимальная температура - максимум температуры воздуха на высоте 2 м над землей.
R - Количество осадков - Количество выпавших осадков за 3 или 6 часов, мм.
SD - Снежный покров - Высота снежного покрова, см.